TimeMST,TemperatureF,Dew PointF,Humidity,Sea Level PressureIn,VisibilityMPH,Wind Direction,Wind SpeedMPH,Gust SpeedMPH,PrecipitationIn,Events,Conditions,WindDirDegrees,DateUTC
12:53 AM,16.0,14.0,92,30.09,10.0,Calm,Calm,-,N/A,,Clear,0,2014-01-10 07:53:00
1:53 AM,14.0,10.9,88,30.09,10.0,NW,3.5,-,N/A,,Clear,310,2014-01-10 08:53:00
2:53 AM,10.9,9.0,92,30.12,8.0,Calm,Calm,-,N/A,,Mostly Cloudy,0,2014-01-10 09:53:00
3:53 AM,16.0,15.1,96,30.11,9.0,East,5.8,-,N/A,,Overcast,80,2014-01-10 10:53:00
4:53 AM,19.9,18.0,92,30.06,7.0,SSE,3.5,-,N/A,,Overcast,160,2014-01-10 11:53:00
5:53 AM,21.0,19.9,96,30.05,7.0,NNE,8.1,-,N/A,,Overcast,30,2014-01-10 12:53:00
6:53 AM,21.9,19.9,92,30.04,8.0,NE,3.5,-,N/A,,Overcast,40,2014-01-10 13:53:00
7:53 AM,19.9,19.0,96,30.07,4.0,WSW,6.9,-,N/A,,Overcast,250,2014-01-10 14:53:00
8:53 AM,21.0,19.0,92,30.09,4.0,Calm,Calm,-,N/A,,Overcast,0,2014-01-10 15:53:00
9:53 AM,24.1,21.0,88,30.11,7.0,NE,5.8,-,N/A,,Mostly Cloudy,40,2014-01-10 16:53:00
10:53 AM,27.0,21.0,78,30.10,10.0,Calm,Calm,-,N/A,,Overcast,0,2014-01-10 17:53:00
11:53 AM,28.0,21.9,78,30.10,10.0,NNW,3.5,-,N/A,,Overcast,330,2014-01-10 18:53:00
12:53 PM,28.0,21.9,78,30.09,10.0,Calm,Calm,-,N/A,,Overcast,0,2014-01-10 19:53:00
1:53 PM,30.0,21.9,72,30.07,10.0,East,4.6,-,N/A,,Overcast,100,2014-01-10 20:53:00
2:53 PM,30.9,23.0,72,30.07,10.0,East,4.6,-,N/A,,Overcast,90,2014-01-10 21:53:00
3:53 PM,30.9,24.1,76,30.07,10.0,East,3.5,-,N/A,,Overcast,80,2014-01-10 22:53:00
4:53 PM,25.0,19.9,81,30.09,10.0,ENE,5.8,-,N/A,,Clear,70,2014-01-10 23:53:00
5:53 PM,21.9,17.1,82,30.12,10.0,East,8.1,-,N/A,,Clear,80,2014-01-11 00:53:00
6:53 PM,21.9,16.0,78,30.15,10.0,NE,4.6,-,N/A,,Clear,40,2014-01-11 01:53:00
7:53 PM,21.0,16.0,81,30.18,10.0,ENE,3.5,-,N/A,,Clear,70,2014-01-11 02:53:00
8:53 PM,19.9,15.1,81,30.21,10.0,NNE,3.5,-,N/A,,Partly Cloudy,30,2014-01-11 03:53:00
9:53 PM,17.1,12.9,84,30.25,10.0,Calm,Calm,-,N/A,,Scattered Clouds,0,2014-01-11 04:53:00
10:53 PM,21.0,18.0,88,30.25,10.0,East,6.9,-,N/A,,Overcast,80,2014-01-11 05:53:00
11:53 PM,21.0,17.1,85,30.26,10.0,South,3.5,-,N/A,,Mostly Cloudy,190,2014-01-11 06:53:00